When you browse on this site, cookies collect data to enhance your experience and personalize the content and advertising you see.
Visit our Privacy Policy to learn more. By continuing to use the site, you agree to this use of cookies and data.
  • en Suisse
  • Liste des pays
  • À 7 jours
  • Température de l'eau
  • Carte météo
  • Widgets météo
  • user-avatar
    Se connecter

    Météo par heure à Graz

    Ce jour, 21 Août, Mercredi

    Heure Température Précipitation Vent Pression Humidité
    00:00 +22°C° 0.1 mm 1 m/s 727 mmHg 87%
    01:00 +21°C° 0.1 mm 1 m/s 727 mmHg 88%
    02:00 +20°C° 0.4 mm 2 m/s 727 mmHg 89%
    03:00 +20°C° 0.4 mm 2 m/s 728 mmHg 91%
    04:00 +19°C° 0.4 mm 2 m/s 728 mmHg 93%
    05:00 +19°C° 0.3 mm 2 m/s 729 mmHg 92%
    06:00 +19°C° 0.3 mm 2 m/s 729 mmHg 90%
    07:00 +19°C° 0.3 mm 2 m/s 730 mmHg 89%
    08:00 +20°C° 0 mm 2 m/s 730 mmHg 83%
    09:00 +21°C° 0 mm 2 m/s 730 mmHg 77%
    10:00 +22°C° 0 mm 1 m/s 731 mmHg 71%
    11:00 +23°C° 0 mm 1 m/s 731 mmHg 68%
    12:00 +24°C° 0 mm 1 m/s 731 mmHg 65%
    13:00 +24°C° 0 mm 1 m/s 731 mmHg 62%
    14:00 +25°C° 0 mm 1 m/s 731 mmHg 62%
    15:00 +25°C° 0 mm 1 m/s 731 mmHg 62%
    16:00 +25°C° 0 mm 1 m/s 730 mmHg 61%
    17:00 +24°C° 0 mm 1 m/s 730 mmHg 66%
    18:00 +22°C° 0 mm 1 m/s 730 mmHg 70%
    19:00 +21°C° 0 mm 1 m/s 730 mmHg 74%
    20:00 +20°C° 0 mm 1 m/s 730 mmHg 77%
    21:00 +19°C° 0 mm 1 m/s 730 mmHg 80%
    22:00 +18°C° 0 mm 1 m/s 730 mmHg 83%
    23:00 +18°C° 0 mm 1 m/s 730 mmHg 85%

    Demain, 22 Août, Jeudi

    Heure Température Précipitation Vent Pression Humidité
    00:00 +16°C° 0 mm 1 m/s 730 mmHg 87%
    01:00 +16°C° 0 mm 1 m/s 730 mmHg 88%
    02:00 +16°C° 0.2 mm 1 m/s 730 mmHg 89%
    03:00 +16°C° 0.2 mm 1 m/s 730 mmHg 90%
    04:00 +15°C° 0.2 mm 1 m/s 729 mmHg 90%
    05:00 +16°C° 0.1 mm 1 m/s 730 mmHg 89%
    06:00 +16°C° 0.1 mm 0 m/s 730 mmHg 88%
    07:00 +17°C° 0.1 mm 0 m/s 730 mmHg 87%
    08:00 +19°C° 0 mm 0 m/s 730 mmHg 78%
    09:00 +23°C° 0 mm 1 m/s 730 mmHg 69%
    10:00 +24°C° 0 mm 1 m/s 730 mmHg 59%
    11:00 +25°C° 0 mm 1 m/s 730 mmHg 57%
    12:00 +26°C° 0 mm 1 m/s 730 mmHg 55%
    13:00 +27°C° 0 mm 2 m/s 730 mmHg 53%
    14:00 +26°C° 0 mm 2 m/s 729 mmHg 55%
    15:00 +26°C° 0 mm 2 m/s 729 mmHg 57%
    16:00 +26°C° 0 mm 2 m/s 729 mmHg 60%
    17:00 +24°C° 0 mm 1 m/s 729 mmHg 69%
    18:00 +22°C° 0 mm 1 m/s 729 mmHg 78%
    19:00 +21°C° 0 mm 1 m/s 729 mmHg 87%
    20:00 +20°C° 0.1 mm 1 m/s 729 mmHg 88%
    21:00 +18°C° 0.1 mm 0 m/s 729 mmHg 89%
    22:00 +17°C° 0.1 mm 0 m/s 730 mmHg 91%
    23:00 +17°C° 0.1 mm 0 m/s 730 mmHg 91%

    Après-demain, 23 Août, Vendredi

    Heure Température Précipitation Vent Pression Humidité
    00:00 +17°C° 0.1 mm 0 m/s 730 mmHg 92%
    01:00 +18°C° 0.1 mm 1 m/s 729 mmHg 92%
    02:00 +16°C° 0.1 mm 0 m/s 729 mmHg 92%
    03:00 +16°C° 0.1 mm 0 m/s 729 mmHg 92%
    04:00 +16°C° 0.1 mm 0 m/s 729 mmHg 92%
    05:00 +17°C° 0 mm 0 m/s 729 mmHg 90%
    06:00 +18°C° 0 mm 0 m/s 730 mmHg 88%
    07:00 +19°C° 0 mm 0 m/s 730 mmHg 86%
    08:00 +20°C° 0 mm 0 m/s 730 mmHg 81%
    09:00 +23°C° 0 mm 1 m/s 730 mmHg 76%
    10:00 +24°C° 0 mm 1 m/s 730 mmHg 71%
    11:00 +25°C° 0 mm 1 m/s 730 mmHg 68%
    12:00 +26°C° 0 mm 1 m/s 730 mmHg 65%
    13:00 +27°C° 0 mm 1 m/s 729 mmHg 62%
    14:00 +27°C° 0 mm 1 m/s 729 mmHg 63%
    15:00 +27°C° 0 mm 1 m/s 729 mmHg 63%
    16:00 +27°C° 0 mm 1 m/s 728 mmHg 64%
    17:00 +26°C° 0.3 mm 1 m/s 728 mmHg 71%
    18:00 +24°C° 0.3 mm 1 m/s 728 mmHg 79%
    19:00 +20°C° 0.3 mm 0 m/s 728 mmHg 86%
    20:00 +20°C° 0.4 mm 0 m/s 728 mmHg 87%
    21:00 +20°C° 0.4 mm 0 m/s 728 mmHg 88%
    22:00 +21°C° 0.4 mm 1 m/s 728 mmHg 89%
    23:00 +21°C° 0.4 mm 1 m/s 728 mmHg 90%

    24 Août, Samedi

    Heure Température Précipitation Vent Pression Humidité
    00:00 +19°C° 0.4 mm 0 m/s 728 mmHg 90%
    01:00 +18°C° 0.4 mm 0 m/s 728 mmHg 91%
    02:00 +18°C° 0.5 mm 0 m/s 728 mmHg 91%
    03:00 +20°C° 0.5 mm 1 m/s 727 mmHg 92%
    04:00 +20°C° 0.5 mm 1 m/s 727 mmHg 92%
    05:00 +21°C° 0 mm 1 m/s 727 mmHg 90%
    06:00 +20°C° 0 mm 0 m/s 727 mmHg 89%
    07:00 +20°C° 0 mm 0 m/s 727 mmHg 88%
    08:00 +24°C° 0.1 mm 1 m/s 728 mmHg 80%
    09:00 +25°C° 0.1 mm 1 m/s 728 mmHg 73%
    10:00 +27°C° 0.1 mm 1 m/s 728 mmHg 66%
    11:00 +28°C° 0.6 mm 1 m/s 728 mmHg 65%
    12:00 +28°C° 0.6 mm 1 m/s 727 mmHg 64%
    13:00 +29°C° 0.6 mm 1 m/s 727 mmHg 62%
    14:00 +29°C° 0.6 mm 1 m/s 727 mmHg 63%
    15:00 +29°C° 0.6 mm 1 m/s 726 mmHg 64%
    16:00 +29°C° 0.6 mm 1 m/s 726 mmHg 65%
    17:00 +27°C° 0.7 mm 1 m/s 726 mmHg 70%
    18:00 +23°C° 0.7 mm 0 m/s 726 mmHg 75%
    19:00 +21°C° 0.7 mm 0 m/s 726 mmHg 81%
    20:00 +21°C° 0.1 mm 0 m/s 726 mmHg 82%
    21:00 +22°C° 0.1 mm 1 m/s 726 mmHg 82%
    22:00 +21°C° 0.1 mm 1 m/s 726 mmHg 83%
    23:00 +21°C° 0.1 mm 1 m/s 726 mmHg 84%

    25 Août, Dimanche

    Heure Température Précipitation Vent Pression Humidité
    00:00 +21°C° 0.1 mm 1 m/s 726 mmHg 85%
    01:00 +20°C° 0.1 mm 1 m/s 726 mmHg 85%
    02:00 +20°C° 0.1 mm 1 m/s 726 mmHg 85%
    03:00 +20°C° 0.1 mm 1 m/s 726 mmHg 86%
    04:00 +20°C° 0.1 mm 1 m/s 725 mmHg 86%
    05:00 +21°C° 0 mm 1 m/s 726 mmHg 84%
    06:00 +22°C° 0 mm 1 m/s 726 mmHg 83%
    07:00 +23°C° 0 mm 1 m/s 726 mmHg 81%
    08:00 +24°C° 0.2 mm 1 m/s 726 mmHg 75%
    09:00 +26°C° 0.2 mm 1 m/s 726 mmHg 69%
    10:00 +28°C° 0.2 mm 1 m/s 727 mmHg 63%
    11:00 +28°C° 0.6 mm 1 m/s 726 mmHg 61%
    12:00 +29°C° 0.6 mm 1 m/s 726 mmHg 59%
    13:00 +30°C° 0.6 mm 1 m/s 726 mmHg 58%
    14:00 +30°C° 0.3 mm 1 m/s 726 mmHg 58%
    15:00 +29°C° 0.3 mm 1 m/s 726 mmHg 58%
    16:00 +27°C° 0.3 mm 0 m/s 725 mmHg 59%
    17:00 +27°C° 0.3 mm 1 m/s 725 mmHg 66%
    18:00 +25°C° 0.3 mm 1 m/s 725 mmHg 73%
    19:00 +23°C° 0.3 mm 1 m/s 725 mmHg 79%
    20:00 +22°C° 0.9 mm 1 m/s 725 mmHg 82%
    21:00 +22°C° 0.9 mm 1 m/s 726 mmHg 85%
    22:00 +21°C° 0.9 mm 1 m/s 726 mmHg 87%
    23:00 +21°C° 0.1 mm 1 m/s 726 mmHg 87%

    26 Août, Lundi

    Heure Température Précipitation Vent Pression Humidité
    00:00 +21°C° 0.1 mm 1 m/s 726 mmHg 87%
    01:00 +20°C° 0.1 mm 1 m/s 726 mmHg 87%
    02:00 +20°C° 0 mm 1 m/s 726 mmHg 86%
    03:00 +20°C° 0 mm 1 m/s 726 mmHg 86%
    04:00 +20°C° 0 mm 1 m/s 726 mmHg 86%
    05:00 +21°C° 0.1 mm 1 m/s 726 mmHg 85%
    06:00 +21°C° 0.1 mm 1 m/s 727 mmHg 85%
    07:00 +22°C° 0.1 mm 1 m/s 727 mmHg 84%
    08:00 +24°C° 0.1 mm 1 m/s 727 mmHg 75%
    09:00 +27°C° 0.1 mm 1 m/s 728 mmHg 66%
    10:00 +29°C° 0.1 mm 1 m/s 728 mmHg 57%
    11:00 +30°C° 0.3 mm 1 m/s 728 mmHg 54%
    12:00 +30°C° 0.3 mm 1 m/s 728 mmHg 52%
    13:00 +31°C° 0.3 mm 1 m/s 728 mmHg 49%
    14:00 +31°C° 0.2 mm 1 m/s 728 mmHg 52%
    15:00 +30°C° 0.2 mm 1 m/s 727 mmHg 55%
    16:00 +29°C° 0.2 mm 1 m/s 727 mmHg 58%
    17:00 +27°C° 0.3 mm 1 m/s 727 mmHg 65%
    18:00 +26°C° 0.3 mm 1 m/s 727 mmHg 72%
    19:00 +24°C° 0.3 mm 1 m/s 727 mmHg 79%
    20:00 +23°C° 0.8 mm 1 m/s 727 mmHg 82%
    21:00 +22°C° 0.8 mm 1 m/s 728 mmHg 85%
    22:00 +21°C° 0.8 mm 1 m/s 728 mmHg 88%
    23:00 +21°C° 0.4 mm 1 m/s 728 mmHg 89%
    Voir plus